TimeCST,TemperatureF,Dew PointF,Humidity,Sea Level PressureIn,VisibilityMPH,Wind Direction,Wind SpeedMPH,Gust SpeedMPH,PrecipitationIn,Events,Conditions,WindDirDegrees,DateUTC
12:15 AM,26.4,23.5,89,30.05,10.0,South,6.9,-,N/A,,Overcast,170,2012-11-06 06:15:00
12:35 AM,27.0,24.3,90,30.04,10.0,South,6.9,-,N/A,,Overcast,170,2012-11-06 06:35:00
12:55 AM,27.5,24.8,90,30.02,10.0,SSE,8.1,-,N/A,,Overcast,160,2012-11-06 06:55:00
1:15 AM,28.0,24.8,88,30.01,10.0,South,8.1,-,N/A,,Overcast,170,2012-11-06 07:15:00
1:35 AM,28.2,25.2,88,30.00,10.0,South,9.2,-,N/A,,Overcast,170,2012-11-06 07:35:00
1:55 AM,28.0,24.8,88,29.99,10.0,SSW,6.9,-,N/A,,Overcast,200,2012-11-06 07:55:00
2:15 AM,28.0,25.2,89,29.98,10.0,South,8.1,-,N/A,,Overcast,190,2012-11-06 08:15:00
2:35 AM,28.0,25.7,91,29.98,10.0,South,8.1,-,N/A,,Overcast,180,2012-11-06 08:35:00
2:55 AM,28.0,26.1,92,29.97,7.0,South,6.9,-,N/A,,Overcast,190,2012-11-06 08:55:00
3:15 AM,28.2,27.0,95,29.97,5.0,South,6.9,-,N/A,,Overcast,180,2012-11-06 09:15:00
3:35 AM,28.4,27.3,96,29.96,5.0,South,8.1,-,N/A,,Overcast,170,2012-11-06 09:35:00
3:55 AM,28.2,27.3,96,29.95,4.0,South,8.1,-,N/A,,Overcast,170,2012-11-06 09:55:00
4:15 AM,28.4,27.5,96,29.95,4.0,SSE,6.9,-,N/A,,Overcast,160,2012-11-06 10:15:00
4:35 AM,28.8,27.9,96,29.94,4.0,South,8.1,-,N/A,,Overcast,170,2012-11-06 10:35:00
4:55 AM,28.4,27.7,97,29.93,4.0,South,6.9,-,N/A,,Overcast,180,2012-11-06 10:55:00
5:15 AM,28.6,27.7,96,29.92,4.0,South,6.9,-,N/A,,Overcast,170,2012-11-06 11:15:00
5:35 AM,29.1,28.0,96,29.92,4.0,SSE,8.1,-,N/A,,Overcast,160,2012-11-06 11:35:00
5:55 AM,29.3,28.2,96,29.91,4.0,SSE,6.9,-,N/A,,Overcast,160,2012-11-06 11:55:00
6:15 AM,29.3,28.2,96,29.91,4.0,South,9.2,-,N/A,,Overcast,170,2012-11-06 12:15:00
6:35 AM,29.3,28.4,96,29.90,4.0,South,10.4,-,N/A,,Overcast,170,2012-11-06 12:35:00
6:55 AM,29.3,28.4,96,29.90,3.0,South,9.2,-,N/A,,Overcast,170,2012-11-06 12:55:00
7:15 AM,29.7,28.4,95,29.90,2.5,South,9.2,17.3,N/A,,Overcast,170,2012-11-06 13:15:00
7:35 AM,29.7,28.8,96,29.90,2.0,South,9.2,-,N/A,Snow,Light Snow,170,2012-11-06 13:35:00
7:55 AM,30.2,29.1,96,29.89,1.8,South,11.5,-,N/A,Snow,Light Snow,170,2012-11-06 13:55:00
8:15 AM,30.2,29.3,96,29.88,1.2,South,11.5,-,N/A,Snow,Light Snow,170,2012-11-06 14:15:00
8:35 AM,30.6,29.3,95,29.88,1.8,South,10.4,-,N/A,Snow,Light Snow,170,2012-11-06 14:35:00
8:55 AM,30.9,29.8,96,29.87,1.5,South,10.4,-,N/A,Snow,Light Snow,170,2012-11-06 14:55:00
9:15 AM,31.1,30.0,96,29.87,1.5,South,12.7,-,N/A,Snow,Light Snow,170,2012-11-06 15:15:00
9:35 AM,31.1,30.2,96,29.87,1.8,SSE,11.5,-,N/A,Snow,Light Snow,160,2012-11-06 15:35:00
9:55 AM,31.1,30.0,96,29.87,1.8,South,11.5,-,N/A,Snow,Light Snow,170,2012-11-06 15:55:00
10:15 AM,31.1,30.2,96,29.87,1.5,SSE,10.4,-,N/A,Snow,Light Snow,160,2012-11-06 16:15:00
10:35 AM,30.9,30.0,96,29.86,1.8,SSE,12.7,-,N/A,Snow,Light Snow,160,2012-11-06 16:35:00
10:55 AM,31.1,30.2,96,29.86,1.2,SSE,11.5,-,N/A,Snow,Light Snow,160,2012-11-06 16:55:00
11:15 AM,31.1,30.2,96,29.85,1.5,SSE,13.8,-,N/A,Snow,Light Snow,160,2012-11-06 17:15:00
11:35 AM,31.5,30.7,97,29.84,1.8,SSE,11.5,-,N/A,,Overcast,160,2012-11-06 17:35:00
11:55 AM,31.6,30.7,96,29.83,1.8,SSE,11.5,17.3,N/A,,Overcast,160,2012-11-06 17:55:00
12:15 PM,31.6,30.9,97,29.82,1.5,SSE,11.5,-,N/A,,Overcast,160,2012-11-06 18:15:00
12:35 PM,31.8,31.1,97,29.81,1.2,SSE,13.8,-,N/A,,Overcast,150,2012-11-06 18:35:00
12:55 PM,32.0,31.1,96,29.81,1.0,SSE,13.8,-,N/A,Snow,Light Snow,150,2012-11-06 18:55:00
1:15 PM,32.0,31.5,98,29.81,1.0,SSE,12.7,-,N/A,Snow,Light Snow,160,2012-11-06 19:15:00
1:35 PM,32.0,31.6,99,29.80,1.0,SSE,11.5,-,N/A,Snow,Light Snow,150,2012-11-06 19:35:00
1:55 PM,32.0,31.6,99,29.80,1.2,SSE,12.7,-,N/A,Snow,Light Snow,160,2012-11-06 19:55:00
2:15 PM,32.0,31.6,99,29.80,1.5,SSE,11.5,-,N/A,Snow,Light Snow,150,2012-11-06 20:15:00
2:35 PM,32.0,31.5,98,29.81,1.5,SSE,9.2,-,N/A,Snow,Light Snow,160,2012-11-06 20:35:00
2:55 PM,32.0,31.6,99,29.81,1.2,SSE,10.4,-,N/A,Snow,Light Snow,150,2012-11-06 20:55:00
3:15 PM,32.0,31.6,99,29.81,1.5,SSE,10.4,-,N/A,,Overcast,150,2012-11-06 21:15:00
3:35 PM,32.0,31.6,99,29.81,1.2,SSE,9.2,-,N/A,Snow,Light Snow,160,2012-11-06 21:35:00
3:55 PM,32.0,31.8,99,29.81,1.2,SSE,9.2,-,N/A,Snow,Light Snow,150,2012-11-06 21:55:00
4:15 PM,32.0,31.6,99,29.82,1.0,SE,8.1,-,N/A,Snow,Light Snow,140,2012-11-06 22:15:00
4:35 PM,32.0,31.8,99,29.82,1.0,SSE,6.9,-,N/A,Snow,Light Snow,150,2012-11-06 22:35:00
4:55 PM,32.0,31.8,99,29.83,2.0,SSE,8.1,-,N/A,Snow,Light Snow,150,2012-11-06 22:55:00
5:15 PM,32.0,31.8,99,29.83,1.5,SSE,5.8,-,N/A,Snow,Light Snow,150,2012-11-06 23:15:00
5:35 PM,31.8,31.6,99,29.83,1.8,SSE,5.8,-,N/A,Snow,Light Snow,150,2012-11-06 23:35:00
5:55 PM,31.8,31.6,99,29.84,2.0,SE,6.9,-,N/A,Snow,Light Snow,140,2012-11-06 23:55:00
6:15 PM,31.8,31.6,99,29.84,2.5,SE,6.9,-,N/A,Snow,Light Snow,130,2012-11-07 00:15:00
6:35 PM,31.8,31.6,99,29.85,2.5,SE,8.1,-,N/A,Snow,Light Snow,130,2012-11-07 00:35:00
6:55 PM,32.0,31.8,99,29.85,2.0,SE,8.1,-,N/A,,Overcast,130,2012-11-07 00:55:00
7:15 PM,31.8,31.8,100,29.85,1.5,SE,5.8,-,N/A,,Overcast,130,2012-11-07 01:15:00
7:35 PM,31.8,31.8,100,29.85,0.8,SE,5.8,-,N/A,,Overcast,130,2012-11-07 01:35:00
7:55 PM,31.8,31.8,100,29.86,0.5,SE,5.8,-,N/A,Fog,Fog,130,2012-11-07 01:55:00
8:15 PM,31.8,31.8,100,29.86,0.5,SE,6.9,-,N/A,Fog,Fog,130,2012-11-07 02:15:00
8:35 PM,31.8,31.8,100,29.86,0.2,SE,3.5,-,N/A,Fog,Fog,130,2012-11-07 02:35:00
8:55 PM,31.8,31.8,100,29.87,0.2,SE,4.6,-,N/A,Fog,Fog,130,2012-11-07 02:55:00
9:15 PM,31.8,31.8,100,29.87,0.2,ESE,4.6,-,N/A,Fog,Fog,120,2012-11-07 03:15:00
9:35 PM,31.8,31.8,100,29.87,0.2,ESE,5.8,-,N/A,Fog,Fog,120,2012-11-07 03:35:00
9:55 PM,31.8,31.8,100,29.87,0.2,ESE,4.6,-,N/A,Fog,Fog,120,2012-11-07 03:55:00
10:15 PM,31.8,31.8,100,29.87,0.2,East,4.6,-,N/A,Fog,Fog,100,2012-11-07 04:15:00
10:35 PM,31.8,31.8,100,29.88,0.2,East,3.5,-,N/A,Fog,Fog,100,2012-11-07 04:35:00
10:55 PM,32.0,32.0,100,29.88,0.2,East,3.5,-,N/A,Fog,Fog,90,2012-11-07 04:55:00
11:15 PM,32.0,32.0,100,29.88,0.2,East,3.5,-,N/A,Fog,Fog,90,2012-11-07 05:15:00
11:35 PM,32.0,32.0,100,29.89,0.2,Calm,Calm,-,N/A,Fog,Fog,0,2012-11-07 05:35:00
11:55 PM,32.0,32.0,100,29.90,0.2,Calm,Calm,-,N/A,Fog,Fog,0,2012-11-07 05:55:00